Starlink 31419

operational
NORAD ID: 59368 Int'l Des: 2024-060 Owner: SPXS Country: US Constellation: starlink
LEOCIRCULAR

Über Starlink 31419

Beschreibung wird geladen...

Live-Position

3D-Globus wird geladen...

Nächste Überflüge

Höhenverlauf

Altitude vs Time

uPlot chart will show altitude changes over time

Zweizeiliger Elementsatz

1 59368U 24060W 25259.43260106 -.00002104 00000-0 -66988-4 0 9998
2 59368 43.0057 163.8627 0001130 263.5334 96.5389 15.27557361 83414
Epoch: 16. Sept. 2025 • Age: 11 hours

Aktueller Status

Höhe 486.7 km
Geschwindigkeit 7.62 km/s
Subsatellitenpunkt -18.42°S, 174.28°W
Startdatum 31. März 2024
Alter 1.4 years
Typ internet

Technische Details

Klassifizierung Payload
Masse 730.00 kg
Trockenmasse 700.00 kg
Gesamtmasse 730.00 kg
Länge 0.30 m
Durchmesser 4.10 m
Spannweite 29.00 m
Form Box + pan
Hersteller SPXS
Bus-Typ Starlink V2M
Phasenstatus In Orbit
Besitzer/Staat SPXS/US

Große Konstellationen

Loading constellations...